Torna al catalogo

COSMOS 1344

AttivoNavigazionePO
NORAD 13110·PAYLOAD·🇷🇺 Russia

Lanciato Mar 24, 1982 da Plesetsk Cosmodrome

Loading…

Prossimi Passaggi (prossime 24 ore)

TLE

AggiornatoSource: Space-Track

Epoca: Sep 14, 2026, 07:15 UTC

1 13110U 82024A   26257.30263944  .00000056  00000-0  43214-4 0  9994
2 13110  82.9267 352.3250 0029841  97.4163 279.2840 13.74243063229789

Traccia COSMOS 1344 in tempo reale con AllMySat

Download on the App Store